�������l�o���
Date,Time,MP-1(��Sv/h),MP-2(��Sv/h),MP-3(��Sv/h),MP-4(��Sv/h),MP-5(��Sv/h),MP-6(��Sv/h),MP-7(��Sv/h),MP-8(��Sv/h),����,����(m/s),���J
2020/02/08,00:00,0.704,1.016,0.659,1.263,0.882,0.402,0.705,0.671,��쐼,3.9,��
2020/02/08,00:10,0.703,1.016,0.659,1.260,0.882,0.402,0.703,0.670,��쐼,4.2,��
2020/02/08,00:20,0.704,1.018,0.660,1.264,0.883,0.402,0.706,0.671,��쐼,4.2,��
2020/02/08,00:30,0.704,1.018,0.660,1.262,0.883,0.403,0.705,0.671,��쐼,4.6,��
2020/02/08,00:40,0.705,1.018,0.659,1.261,0.880,0.402,0.707,0.671,��쐼,4.1,��
2020/02/08,00:50,0.702,1.017,0.660,1.263,0.881,0.403,0.706,0.672,��쐼,2.6,��
2020/02/08,01:00,0.703,1.017,0.659,1.262,0.881,0.404,0.703,0.671,�쐼,3.2,��
2020/02/08,01:10,0.705,1.016,0.658,1.260,0.881,0.402,0.705,0.671,�쐼,4.1,��
2020/02/08,01:20,0.704,1.015,0.660,1.265,0.883,0.401,0.705,0.669,�쐼,4.1,��
2020/02/08,01:30,0.705,1.016,0.660,1.263,0.882,0.404,0.706,0.669,�쐼,3.8,��
2020/02/08,01:40,0.703,1.016,0.660,1.262,0.883,0.402,0.707,0.671,���쐼,3.5,��
2020/02/08,01:50,0.702,1.017,0.658,1.263,0.883,0.402,0.705,0.669,���쐼,3.1,��
2020/02/08,02:00,0.705,1.017,0.661,1.263,0.881,0.401,0.705,0.669,�쐼,1.7,��
2020/02/08,02:10,0.705,1.015,0.660,1.262,0.883,0.403,0.706,0.671,��쐼,1.3,��
2020/02/08,02:20,0.705,1.017,0.660,1.264,0.881,0.403,0.704,0.669,�쓌,0.8,��
2020/02/08,02:30,0.705,1.018,0.661,1.267,0.883,0.402,0.705,0.670,-,CALM,��
2020/02/08,02:40,0.706,1.016,0.659,1.263,0.883,0.402,0.706,0.671,�쓌,0.5,��
2020/02/08,02:50,0.704,1.015,0.661,1.264,0.880,0.403,0.706,0.669,���k��,1.0,��
2020/02/08,03:00,0.707,1.016,0.660,1.261,0.882,0.402,0.706,0.670,�k�k��,1.6,��
2020/02/08,03:10,0.706,1.017,0.661,1.261,0.882,0.404,0.705,0.670,�k�k��,1.8,��
2020/02/08,03:20,0.704,1.018,0.657,1.262,0.881,0.404,0.704,0.671,�k,1.8,��
2020/02/08,03:30,0.704,1.017,0.659,1.262,0.881,0.403,0.707,0.671,�k,1.5,��
2020/02/08,03:40,0.705,1.016,0.658,1.263,0.881,0.404,0.706,0.673,���k��,1.7,��
2020/02/08,03:50,0.705,1.018,0.661,1.262,0.882,0.402,0.706,0.670,��,1.0,��
2020/02/08,04:00,0.705,1.016,0.659,1.264,0.879,0.402,0.706,0.671,���k��,1.6,��
2020/02/08,04:10,0.704,1.015,0.659,1.264,0.880,0.402,0.706,0.672,���k��,2.9,��
2020/02/08,04:20,0.705,1.015,0.660,1.263,0.881,0.404,0.706,0.670,�k��,0.9,��
2020/02/08,04:30,0.707,1.019,0.660,1.263,0.880,0.403,0.705,0.670,�k,1.5,��
2020/02/08,04:40,0.704,1.018,0.659,1.261,0.880,0.404,0.705,0.670,�k�k��,1.8,��
2020/02/08,04:50,0.705,1.017,0.662,1.263,0.878,0.404,0.705,0.670,�k�k��,2.5,��
2020/02/08,05:00,0.707,1.016,0.660,1.262,0.880,0.403,0.707,0.671,�k��,2.9,��
2020/02/08,05:10,0.706,1.016,0.659,1.263,0.879,0.403,0.706,0.670,���k��,4.7,��
2020/02/08,05:20,0.704,1.015,0.660,1.259,0.882,0.404,0.706,0.671,���k��,5.2,��
2020/02/08,05:30,0.705,1.015,0.659,1.262,0.879,0.403,0.705,0.670,��,4.0,��
2020/02/08,05:40,0.705,1.017,0.658,1.263,0.880,0.403,0.707,0.672,��,5.3,��
2020/02/08,05:50,0.705,1.016,0.659,1.265,0.880,0.402,0.707,0.671,��,4.6,��
2020/02/08,06:00,0.704,1.016,0.658,1.265,0.880,0.402,0.706,0.671,��,4.1,��
2020/02/08,06:10,0.706,1.016,0.659,1.265,0.880,0.404,0.705,0.671,��,7.1,��
2020/02/08,06:20,0.704,1.015,0.659,1.264,0.880,0.403,0.707,0.669,��,8.3,��
2020/02/08,06:30,0.705,1.018,0.658,1.263,0.880,0.403,0.707,0.671,��,7.4,��
2020/02/08,06:40,0.706,1.016,0.661,1.265,0.881,0.403,0.706,0.671,��,8.0,��
2020/02/08,06:50,0.704,1.016,0.658,1.264,0.879,0.403,0.707,0.671,��,8.2,��
2020/02/08,07:00,0.705,1.017,0.659,1.263,0.881,0.402,0.706,0.671,��,8.2,��
2020/02/08,07:10,0.706,1.016,0.659,1.264,0.879,0.402,0.707,0.672,���k��,8.9,��
2020/02/08,07:20,0.706,1.016,0.658,1.264,0.878,0.402,0.707,0.670,��,7.7,��
2020/02/08,07:30,0.707,1.016,0.659,1.265,0.880,0.403,0.706,0.671,���k��,6.6,��
2020/02/08,07:40,0.706,1.017,0.660,1.262,0.881,0.402,0.708,0.671,���k��,7.2,��
2020/02/08,07:50,0.707,1.016,0.660,1.264,0.878,0.403,0.710,0.672,���k��,6.1,��
2020/02/08,08:00,0.705,1.016,0.659,1.261,0.878,0.402,0.709,0.673,���k��,5.6,��
2020/02/08,08:10,0.706,1.017,0.661,1.266,0.880,0.403,0.709,0.672,���k��,6.9,��
2020/02/08,08:20,0.707,1.016,0.658,1.264,0.879,0.404,0.708,0.672,���k��,7.1,��
2020/02/08,08:30,0.706,1.017,0.660,1.266,0.882,0.404,0.708,0.671,���k��,8.8,��
2020/02/08,08:40,0.706,1.017,0.659,1.263,0.880,0.403,0.708,0.673,���k��,6.9,��
2020/02/08,08:50,0.708,1.020,0.659,1.264,0.881,0.405,0.709,0.671,���k��,7.1,��
2020/02/08,09:00,0.707,1.017,0.660,1.262,0.882,0.404,0.709,0.672,���k��,8.9,��
2020/02/08,09:10,0.708,1.021,0.661,1.262,0.879,0.404,0.707,0.671,�k��,8.2,��
2020/02/08,09:20,0.708,1.018,0.660,1.263,0.879,0.404,0.707,0.671,�k��,6.3,��
2020/02/08,09:30,0.707,1.022,0.660,1.263,0.880,0.403,0.707,0.672,�k��,8.8,��
2020/02/08,09:40,0.707,1.019,0.660,1.265,0.882,0.403,0.709,0.671,�k��,6.9,��
2020/02/08,09:50,0.706,1.016,0.658,1.264,0.885,0.404,0.708,0.672,�k��,8.2,��
2020/02/08,10:00,0.709,1.019,0.661,1.262,0.882,0.405,0.707,0.670,�k��,7.2,��
2020/02/08,10:10,0.709,1.020,0.658,1.262,0.884,0.404,0.708,0.671,�k��,9.9,��
2020/02/08,10:20,0.708,1.022,0.660,1.265,0.885,0.405,0.707,0.672,�k��,9.4,��
2020/02/08,10:30,0.708,1.022,0.661,1.264,0.884,0.404,0.708,0.671,�k��,9.9,��
2020/02/08,10:40,0.709,1.023,0.662,1.263,0.885,0.405,0.709,0.673,�k��,8.3,��
2020/02/08,10:50,0.709,1.022,0.660,1.266,0.883,0.404,0.708,0.672,�k��,6.4,��
2020/02/08,11:00,0.709,1.022,0.660,1.265,0.883,0.404,0.707,0.673,�k��,5.8,��
2020/02/08,11:10,0.708,1.019,0.660,1.266,0.885,0.405,0.708,0.671,�k�k��,6.3,��
2020/02/08,11:20,0.709,1.023,0.661,1.264,0.887,0.403,0.708,0.674,�k�k��,6.9,��
2020/02/08,11:30,0.707,1.020,0.662,1.265,0.885,0.406,0.708,0.673,�k�k��,5.8,��
2020/02/08,11:40,0.709,1.021,0.662,1.265,0.888,0.406,0.707,0.671,�k�k��,6.4,��
2020/02/08,11:50,0.707,1.017,0.661,1.263,0.884,0.403,0.706,0.673,�k�k��,6.9,��
2020/02/08,12:00,0.709,1.020,0.662,1.266,0.886,0.404,0.706,0.674,�k�k��,6.1,��
2020/02/08,12:10,0.707,1.021,0.663,1.267,0.883,0.404,0.707,0.672,�k�k��,6.9,��
2020/02/08,12:20,0.709,1.022,0.663,1.265,0.886,0.403,0.706,0.673,�k�k��,6.9,��
2020/02/08,12:30,0.709,1.021,0.665,1.267,0.884,0.405,0.706,0.674,�k��,5.8,��
2020/02/08,12:40,0.708,1.019,0.665,1.267,0.883,0.404,0.708,0.674,�k��,6.1,�L
2020/02/08,12:50,0.708,1.021,0.661,1.266,0.885,0.403,0.706,0.672,�k��,6.3,�L
2020/02/08,13:00,0.708,1.021,0.662,1.265,0.883,0.403,0.707,0.671,�k��,6.3,��
2020/02/08,13:10,0.710,1.021,0.663,1.266,0.887,0.402,0.707,0.673,�k�k��,5.3,��
2020/02/08,13:20,0.711,1.022,0.663,1.265,0.887,0.404,0.706,0.670,�k��,4.6,��
2020/02/08,13:30,0.711,1.022,0.661,1.267,0.888,0.403,0.707,0.672,�k��,4.4,��
2020/02/08,13:40,0.709,1.022,0.663,1.266,0.887,0.403,0.706,0.672,�k��,7.5,�L
2020/02/08,13:50,0.711,1.023,0.663,1.265,0.887,0.405,0.705,0.674,�k��,8.6,�L
2020/02/08,14:00,0.710,1.023,0.661,1.267,0.888,0.403,0.706,0.674,�k��,8.2,�L
2020/02/08,14:10,0.710,1.023,0.662,1.266,0.887,0.400,0.706,0.672,���k��,6.7,�L
2020/02/08,14:20,0.708,1.023,0.663,1.265,0.887,0.404,0.707,0.672,���k��,6.4,�L
2020/02/08,14:30,0.707,1.022,0.662,1.266,0.888,0.403,0.706,0.672,���k��,5.2,��
2020/02/08,14:40,0.707,1.022,0.661,1.267,0.888,0.405,0.707,0.672,���k��,5.3,��
2020/02/08,14:50,0.710,1.025,0.663,1.266,0.889,0.404,0.707,0.673,���k��,5.5,��
2020/02/08,15:00,0.708,1.022,0.663,1.265,0.887,0.402,0.708,0.672,���k��,4.4,��
2020/02/08,15:10,0.708,1.023,0.661,1.267,0.887,0.404,0.705,0.672,�k��,5.2,��
2020/02/08,15:20,0.709,1.023,0.661,1.266,0.889,0.405,0.708,0.673,�k��,7.1,��
2020/02/08,15:30,0.709,1.022,0.663,1.266,0.887,0.404,0.708,0.674,�k��,7.8,��
2020/02/08,15:40,0.709,1.023,0.662,1.266,0.887,0.403,0.709,0.672,�k��,10.2,��
2020/02/08,15:50,0.710,1.021,0.663,1.266,0.889,0.404,0.706,0.674,�k��,8.3,��
2020/02/08,16:00,0.710,1.023,0.663,1.265,0.886,0.403,0.705,0.671,���k��,7.8,��
2020/02/08,16:10,0.707,1.021,0.663,1.266,0.888,0.403,0.706,0.672,�k��,7.1,��
2020/02/08,16:20,0.708,1.025,0.662,1.265,0.887,0.405,0.707,0.673,���k��,6.7,��
2020/02/08,16:30,0.707,1.024,0.662,1.266,0.889,0.403,0.707,0.672,���k��,6.9,��
2020/02/08,16:40,0.708,1.024,0.662,1.264,0.889,0.403,0.708,0.671,���k��,7.1,��
2020/02/08,16:50,0.709,1.024,0.662,1.265,0.888,0.403,0.708,0.674,���k��,6.7,��
2020/02/08,17:00,0.710,1.024,0.663,1.267,0.887,0.402,0.709,0.672,�k��,6.4,��
2020/02/08,17:10,0.706,1.023,0.661,1.265,0.888,0.404,0.708,0.672,���k��,4.9,��
2020/02/08,17:20,0.708,1.023,0.662,1.265,0.887,0.403,0.706,0.672,�k��,5.2,��
2020/02/08,17:30,0.707,1.021,0.662,1.265,0.888,0.403,0.708,0.672,�k��,5.5,��
2020/02/08,17:40,0.706,1.023,0.662,1.268,0.887,0.403,0.708,0.672,�k��,4.0,��
2020/02/08,17:50,0.706,1.021,0.665,1.265,0.887,0.405,0.708,0.671,�k�k��,4.1,��
2020/02/08,18:00,0.707,1.024,0.662,1.265,0.886,0.403,0.708,0.671,�k�k��,5.3,��
2020/02/08,18:10,0.706,1.025,0.662,1.263,0.888,0.404,0.706,0.670,�k�k��,5.3,��
2020/02/08,18:20,0.707,1.022,0.662,1.265,0.886,0.403,0.707,0.672,�k�k��,6.0,��
2020/02/08,18:30,0.707,1.021,0.663,1.267,0.887,0.403,0.706,0.670,�k�k��,6.3,��
2020/02/08,18:40,0.707,1.021,0.662,1.268,0.886,0.402,0.707,0.673,�k�k��,6.7,��
2020/02/08,18:50,0.707,1.023,0.661,1.265,0.887,0.402,0.708,0.673,�k�k��,6.4,��
2020/02/08,19:00,0.707,1.021,0.662,1.263,0.886,0.402,0.706,0.672,�k�k��,6.3,��
2020/02/08,19:10,0.706,1.021,0.660,1.267,0.885,0.401,0.707,0.672,�k�k��,6.3,��
2020/02/08,19:20,0.707,1.020,0.661,1.266,0.885,0.402,0.708,0.673,�k�k��,6.0,��
2020/02/08,19:30,0.706,1.023,0.660,1.266,0.886,0.402,0.708,0.671,�k�k��,6.0,��
2020/02/08,19:40,0.707,1.022,0.662,1.266,0.885,0.402,0.707,0.672,�k�k��,6.0,��
2020/02/08,19:50,0.706,1.021,0.663,1.266,0.887,0.403,0.708,0.671,�k�k��,5.5,��
2020/02/08,20:00,0.707,1.024,0.661,1.266,0.886,0.403,0.708,0.672,�k�k��,4.5,��
2020/02/08,20:10,0.707,1.022,0.661,1.263,0.887,0.401,0.707,0.672,�k�k��,5.0,��
2020/02/08,20:20,0.705,1.022,0.662,1.267,0.885,0.403,0.706,0.671,�k�k��,4.5,��
2020/02/08,20:30,0.706,1.021,0.662,1.264,0.885,0.402,0.708,0.671,�k�k��,4.6,��
2020/02/08,20:40,0.704,1.021,0.661,1.266,0.886,0.402,0.708,0.671,�k�k��,6.4,��
2020/02/08,20:50,0.705,1.021,0.660,1.265,0.885,0.401,0.707,0.670,�k�k��,5.5,��
2020/02/08,21:00,0.705,1.022,0.660,1.266,0.885,0.403,0.707,0.672,�k��,6.3,��
2020/02/08,21:10,0.705,1.022,0.661,1.264,0.887,0.402,0.707,0.672,�k��,5.8,��
2020/02/08,21:20,0.706,1.018,0.661,1.265,0.887,0.401,0.707,0.672,�k��,5.2,��
2020/02/08,21:30,0.705,1.019,0.662,1.265,0.885,0.401,0.707,0.671,�k�k��,6.1,��
2020/02/08,21:40,0.707,1.023,0.661,1.265,0.885,0.402,0.709,0.670,�k�k��,7.2,��
2020/02/08,21:50,0.706,1.020,0.660,1.265,0.886,0.403,0.709,0.671,�k��,7.8,��
2020/02/08,22:00,0.707,1.020,0.660,1.265,0.885,0.402,0.708,0.671,�k��,8.6,��
2020/02/08,22:10,0.706,1.018,0.658,1.266,0.884,0.404,0.708,0.671,�k��,9.4,��
2020/02/08,22:20,0.707,1.019,0.659,1.265,0.887,0.402,0.708,0.671,�k��,8.2,��
2020/02/08,22:30,0.707,1.019,0.659,1.264,0.884,0.399,0.708,0.672,�k��,9.4,��
2020/02/08,22:40,0.705,1.018,0.659,1.267,0.885,0.400,0.707,0.672,�k�k��,7.1,��
2020/02/08,22:50,0.706,1.017,0.658,1.265,0.883,0.399,0.708,0.672,�k�k��,7.4,��
2020/02/08,23:00,0.706,1.018,0.659,1.264,0.886,0.400,0.706,0.671,�k�k��,9.1,��
2020/02/08,23:10,0.706,1.018,0.657,1.266,0.883,0.400,0.707,0.672,�k�k��,11.0,��
2020/02/08,23:20,0.705,1.016,0.658,1.264,0.882,0.400,0.708,0.670,�k��,9.6,��
2020/02/08,23:30,0.706,1.015,0.659,1.264,0.882,0.399,0.707,0.671,�k��,9.9,��
2020/02/08,23:40,0.704,1.017,0.657,1.264,0.886,0.398,0.706,0.671,�k��,8.0,��
2020/02/08,23:50,0.705,1.016,0.659,1.263,0.885,0.399,0.706,0.671,�k��,7.5,��
